| time (UTC) | temp F | wind direction | speed knots | gust knots | rain 1hr in | rain 24hr in | rain mn in | humidity % | barometer mb |
| 20260507103950 | 48 | 16 | 0.9 | 1.7 | 0.00 | 0.00 | 0.00 | 58 | 1021.1 |
| 20260507103447 | 48 | 158 | 1.7 | 2.6 | 0.00 | 0.00 | 0.00 | 58 | 1021.0 |
| 20260507102943 | 49 | 97 | 2.6 | 2.6 | 0.00 | 0.00 | 0.00 | 58 | 1021.0 |
| 20260507102440 | 49 | 227 | 0.9 | 0.9 | 0.00 | 0.00 | 0.00 | 58 | 1021.2 |
| 20260507101937 | 49 | 196 | 0.0 | 0.0 | 0.00 | 0.00 | 0.00 | 58 | 1021.1 |
| 20260507101432 | 49 | 207 | 0.9 | 1.7 | 0.00 | 0.00 | 0.00 | 58 | 1021.0 |
| 20260507100928 | 49 | 322 | 1.7 | 2.6 | 0.00 | 0.00 | 0.00 | 57 | 1021.4 |
| 20260507100426 | 49 | 217 | 0.9 | 0.9 | 0.00 | 0.00 | 0.00 | 57 | 1021.3 |
| 20260507095924 | 49 | 217 | 1.7 | 4.3 | 0.00 | 0.00 | 0.00 | 57 | 1021.4 |
| 20260507095421 | 49 | 22 | 0.9 | 1.7 | 0.00 | 0.00 | 0.00 | 57 | 1021.6 |
| 20260507094918 | 50 | 195 | 1.7 | 4.3 | 0.00 | 0.00 | 0.00 | 57 | 1021.4 |
| 20260507094414 | 50 | 148 | 2.6 | 4.3 | 0.00 | 0.00 | 0.00 | 56 | 1021.0 |
| 20260507093911 | 50 | 133 | 0.9 | 2.6 | 0.00 | 0.00 | 0.00 | 56 | 1021.2 |
| 20260507093409 | 50 | 315 | 2.6 | 5.2 | 0.00 | 0.00 | 0.00 | 56 | 1021.3 |
| 20260507092908 | 50 | 252 | 1.7 | 4.3 | 0.00 | 0.00 | 0.00 | 56 | 1021.4 |
| 20260507092403 | 51 | 58 | 0.9 | 0.9 | 0.00 | 0.00 | 0.00 | 55 | 1021.5 |
| 20260507091900 | 51 | 89 | 2.6 | 4.3 | 0.00 | 0.00 | 0.00 | 55 | 1021.6 |
| 20260507091356 | 51 | 145 | 0.9 | 1.7 | 0.00 | 0.00 | 0.00 | 56 | 1021.4 |
| 20260507090852 | 51 | 79 | 2.6 | 4.3 | 0.00 | 0.00 | 0.00 | 56 | 1021.4 |
| 20260507090349 | 51 | 96 | 0.9 | 1.7 | 0.00 | 0.00 | 0.00 | 56 | 1021.3 |
| 20260507085846 | 51 | 80 | 2.6 | 4.3 | 0.00 | 0.00 | 0.00 | 56 | 1021.3 |
| 20260507085342 | 51 | 190 | 3.5 | 7.0 | 0.00 | 0.00 | 0.00 | 56 | 1021.5 |
| 20260507084840 | 51 | 153 | 0.0 | 0.9 | 0.00 | 0.00 | 0.00 | 56 | 1021.5 |
| 20260507084336 | 51 | 108 | 0.9 | 1.7 | 0.00 | 0.00 | 0.00 | 56 | 1021.3 |
| 20260507083834 | 51 | 200 | 0.9 | 2.6 | 0.00 | 0.00 | 0.00 | 56 | 1021.2 |
| 20260507083330 | 52 | 241 | 0.0 | 0.9 | 0.00 | 0.00 | 0.00 | 55 | 1021.3 |
| 20260507082826 | 52 | 192 | 0.9 | 1.7 | 0.00 | 0.00 | 0.00 | 55 | 1021.6 |
| 20260507082322 | 52 | 207 | 0.9 | 1.7 | 0.00 | 0.00 | 0.00 | 54 | 1021.3 |
| 20260507081819 | 52 | 246 | 0.9 | 1.7 | 0.00 | 0.00 | 0.00 | 55 | 1021.4 |
| 20260507081315 | 52 | 218 | 1.7 | 5.2 | 0.00 | 0.00 | 0.00 | 55 | 1021.5 |
| 20260507080812 | 53 | 226 | 0.0 | 0.9 | 0.00 | 0.00 | 0.00 | 55 | 1021.4 |
| 20260507080308 | 53 | 251 | 1.7 | 2.6 | 0.00 | 0.00 | 0.00 | 54 | 1021.6 |
| 20260507075803 | 53 | 335 | 1.7 | 2.6 | 0.00 | 0.00 | 0.00 | 55 | 1021.3 |
| 20260507075300 | 53 | 233 | 2.6 | 4.3 | 0.00 | 0.00 | 0.00 | 55 | 1021.3 |
| 20260507074756 | 53 | 184 | 1.7 | 4.3 | 0.00 | 0.00 | 0.00 | 55 | 1021.4 |
| 20260507074255 | 53 | 212 | 1.7 | 2.6 | 0.00 | 0.00 | 0.00 | 55 | 1021.3 |
| 20260507073751 | 54 | 96 | 0.9 | 2.6 | 0.00 | 0.00 | 0.00 | 54 | 1021.3 |
| 20260507073247 | 54 | 277 | 2.6 | 5.2 | 0.00 | 0.00 | 0.00 | 54 | 1021.3 |
| 20260507072745 | 54 | 240 | 2.6 | 5.2 | 0.00 | 0.00 | 0.00 | 54 | 1021.4 |
| 20260507072243 | 54 | 58 | 2.6 | 4.3 | 0.00 | 0.00 | 0.00 | 54 | 1021.2 |
| 20260507071740 | 54 | 186 | 0.0 | 0.9 | 0.00 | 0.00 | 0.00 | 54 | 1021.1 |
| 20260507071236 | 55 | 196 | 0.0 | 0.9 | 0.00 | 0.00 | 0.00 | 53 | 1021.1 |
| 20260507070733 | 55 | 216 | 2.6 | 5.2 | 0.00 | 0.00 | 0.00 | 53 | 1021.3 |
| 20260507070230 | 55 | 48 | 0.9 | 1.7 | 0.00 | 0.00 | 0.00 | 53 | 1021.2 |
| 20260507065727 | 55 | 209 | 0.0 | 0.0 | 0.00 | 0.00 | 0.00 | 53 | 1021.2 |
| 20260507065224 | 55 | 219 | 2.6 | 4.3 | 0.00 | 0.00 | 0.00 | 53 | 1021.2 |
| 20260507064721 | 55 | 295 | 2.6 | 2.6 | 0.00 | 0.00 | 0.00 | 53 | 1021.0 |
| 20260507064220 | 55 | 170 | 1.7 | 1.7 | 0.00 | 0.00 | 0.00 | 53 | 1021.0 |
| 20260507063716 | 56 | 310 | 1.7 | 1.7 | 0.00 | 0.00 | 0.00 | 53 | 1021.1 |
| 20260507063213 | 56 | 311 | 0.0 | 0.9 | 0.00 | 0.00 | 0.00 | 52 | 1020.8 |
| 20260507062710 | 56 | 78 | 2.6 | 7.0 | 0.00 | 0.00 | 0.00 | 52 | 1020.6 |
| 20260507062208 | 56 | 16 | 1.7 | 1.7 | 0.00 | 0.00 | 0.00 | 52 | 1020.4 |
| 20260507061706 | 56 | 119 | 0.0 | 1.7 | 0.00 | 0.00 | 0.00 | 52 | 1020.4 |
| 20260507061203 | 57 | 56 | 4.3 | 6.1 | 0.00 | 0.00 | 0.00 | 52 | 1020.3 |
| 20260507060701 | 57 | 101 | 1.7 | 1.7 | 0.00 | 0.00 | 0.00 | 52 | 1020.1 |
| 20260507060157 | 57 | 125 | 6.1 | 9.6 | 0.00 | 0.00 | 0.00 | 52 | 1020.1 |
| 20260507055653 | 57 | 94 | 5.2 | 8.7 | 0.00 | 0.00 | 0.00 | 52 | 1020.0 |
| 20260507055149 | 57 | 169 | 4.3 | 5.2 | 0.00 | 0.00 | 0.00 | 51 | 1020.0 |
| 20260507054645 | 57 | 141 | 5.2 | 7.0 | 0.00 | 0.00 | 0.00 | 51 | 1019.9 |
| 20260507054142 | 58 | 310 | 1.7 | 2.6 | 0.00 | 0.00 | 0.00 | 51 | 1019.9 |
| 20260507053640 | 58 | 215 | 3.5 | 5.2 | 0.00 | 0.00 | 0.00 | 51 | 1020.0 |
| 20260507053138 | 58 | 244 | 1.7 | 2.6 | 0.00 | 0.00 | 0.00 | 50 | 1019.8 |
| 20260507052636 | 58 | 203 | 1.7 | 4.3 | 0.00 | 0.00 | 0.00 | 50 | 1019.6 |
| 20260507052132 | 58 | 232 | 2.6 | 4.3 | 0.00 | 0.00 | 0.00 | 50 | 1019.5 |
| 20260507051630 | 59 | 53 | 1.7 | 2.6 | 0.00 | 0.00 | 0.00 | 50 | 1019.4 |
| 20260507051126 | 59 | 256 | 1.7 | 2.6 | 0.00 | 0.00 | 0.00 | 49 | 1019.4 |
| 20260507050624 | 59 | 238 | 1.7 | 2.6 | 0.00 | 0.00 | 0.00 | 49 | 1019.1 |
| 20260507050120 | 59 | 279 | 1.7 | 4.3 | 0.00 | 0.00 | 0.00 | 49 | 1019.1 |
| 20260507045617 | 59 | 56 | 0.9 | 1.7 | 0.00 | 0.00 | 0.00 | 49 | 1019.0 |
| 20260507045114 | 60 | 343 | 3.5 | 6.1 | 0.00 | 0.00 | 0.00 | 49 | 1018.8 |
| 20260507044611 | 60 | 82 | 1.7 | 2.6 | 0.00 | 0.00 | 0.00 | 48 | 1018.4 |
| 20260507044108 | 60 | 130 | 4.3 | 7.0 | 0.00 | 0.00 | 0.00 | 48 | 1018.1 |
| 20260507043603 | 60 | 108 | 4.3 | 6.1 | 0.00 | 0.00 | 0.00 | 48 | 1018.0 |
| 20260507043101 | 60 | 73 | 7.8 | 13.0 | 0.00 | 0.00 | 0.00 | 48 | 1017.7 |
| 20260507042556 | 60 | 56 | 2.6 | 5.2 | 0.00 | 0.00 | 0.00 | 47 | 1017.7 |
| 20260507042052 | 60 | 116 | 6.1 | 11.3 | 0.00 | 0.00 | 0.00 | 47 | 1017.7 |
| 20260507041549 | 61 | 107 | 5.2 | 7.0 | 0.00 | 0.00 | 0.00 | 47 | 1017.4 |
| 20260507041046 | 61 | 119 | 6.1 | 8.7 | 0.00 | 0.00 | 0.00 | 46 | 1017.2 |
| 20260507040543 | 61 | 113 | 6.1 | 9.6 | 0.00 | 0.00 | 0.00 | 46 | 1017.2 |
| 20260507040039 | 61 | 105 | 7.0 | 11.3 | 0.00 | 0.00 | 0.00 | 46 | 1017.3 |
| 20260507035535 | 61 | 103 | 4.3 | 7.0 | 0.00 | 0.00 | 0.00 | 45 | 1017.0 |
| 20260507035032 | 62 | 98 | 5.2 | 7.0 | 0.00 | 0.00 | 0.00 | 45 | 1017.1 |
| 20260507034528 | 62 | 196 | 3.5 | 5.2 | 0.00 | 0.00 | 0.00 | 45 | 1017.0 |
| 20260507034026 | 62 | 114 | 4.3 | 7.0 | 0.00 | 0.00 | 0.00 | 44 | 1016.9 |
| 20260507033524 | 62 | 109 | 7.8 | 11.3 | 0.00 | 0.00 | 0.00 | 44 | 1016.8 |
| 20260507033021 | 62 | 119 | 7.8 | 9.6 | 0.00 | 0.00 | 0.00 | 43 | 1016.7 |
| 20260507032518 | 63 | 149 | 1.7 | 4.3 | 0.00 | 0.00 | 0.00 | 43 | 1016.6 |
| 20260507032014 | 63 | 123 | 4.3 | 5.2 | 0.00 | 0.00 | 0.00 | 42 | 1016.9 |
| 20260507031510 | 63 | 95 | 7.0 | 7.8 | 0.00 | 0.00 | 0.00 | 42 | 1017.0 |
| 20260507031008 | 64 | 104 | 4.3 | 7.0 | 0.00 | 0.00 | 0.00 | 41 | 1016.8 |
| 20260507030504 | 64 | 124 | 4.3 | 5.2 | 0.00 | 0.00 | 0.00 | 41 | 1016.5 |
| 20260507030002 | 64 | 106 | 2.6 | 4.3 | 0.00 | 0.00 | 0.00 | 41 | 1016.5 |
| 20260507025459 | 64 | 107 | 3.5 | 5.2 | 0.00 | 0.00 | 0.00 | 40 | 1016.2 |
| 20260507024957 | 64 | 142 | 3.5 | 4.3 | 0.00 | 0.00 | 0.00 | 40 | 1016.2 |
| 20260507024454 | 64 | 88 | 6.1 | 8.7 | 0.00 | 0.00 | 0.00 | 40 | 1016.3 |
| 20260507023950 | 65 | 118 | 2.6 | 2.6 | 0.00 | 0.00 | 0.00 | 40 | 1016.2 |
| 20260507023446 | 65 | 104 | 6.1 | 11.3 | 0.00 | 0.00 | 0.00 | 39 | 1016.0 |
| 20260507022944 | 65 | 120 | 2.6 | 4.3 | 0.00 | 0.00 | 0.00 | 39 | 1015.7 |
| 20260507022441 | 65 | 99 | 9.6 | 13.0 | 0.00 | 0.00 | 0.00 | 39 | 1015.8 |
| 20260507021930 | 66 | 138 | 4.3 | 5.2 | 0.00 | 0.00 | 0.00 | 38 | 1015.7 |
| 20260507021425 | 66 | 119 | 6.1 | 7.0 | 0.00 | 0.00 | 0.00 | 38 | 1015.4 |
| 20260507020924 | 66 | 75 | 7.0 | 12.2 | 0.00 | 0.00 | 0.00 | 37 | 1015.4 |
| 20260507020420 | 66 | 104 | 7.0 | 8.7 | 0.00 | 0.00 | 0.00 | 37 | 1015.5 |
| 20260507015917 | 67 | 109 | 8.7 | 12.2 | 0.00 | 0.00 | 0.00 | 36 | 1015.2 |
| 20260507015416 | 67 | 62 | 4.3 | 6.1 | 0.00 | 0.00 | 0.00 | 36 | 1015.1 |
| 20260507014912 | 67 | 87 | 6.1 | 7.0 | 0.00 | 0.00 | 0.00 | 36 | 1014.9 |
| 20260507014409 | 68 | 136 | 5.2 | 7.0 | 0.00 | 0.00 | 0.00 | 35 | 1014.7 |
| 20260507013905 | 68 | 77 | 4.3 | 7.0 | 0.00 | 0.00 | 0.00 | 35 | 1014.7 |
| 20260507013402 | 68 | 112 | 6.1 | 7.8 | 0.00 | 0.00 | 0.00 | 35 | 1014.5 |
| 20260507012900 | 68 | 115 | 4.3 | 8.7 | 0.00 | 0.00 | 0.00 | 34 | 1014.4 |
| 20260507012355 | 69 | 107 | 4.3 | 7.8 | 0.00 | 0.00 | 0.00 | 34 | 1014.6 |
| 20260507011853 | 69 | 142 | 4.3 | 7.0 | 0.00 | 0.00 | 0.00 | 34 | 1014.4 |
| 20260507011350 | 69 | 86 | 5.2 | 7.0 | 0.00 | 0.00 | 0.00 | 33 | 1014.0 |
| 20260507010849 | 70 | 132 | 4.3 | 6.1 | 0.00 | 0.00 | 0.00 | 33 | 1014.3 |
| 20260507010345 | 71 | 195 | 4.3 | 7.8 | 0.00 | 0.00 | 0.00 | 32 | 1014.1 |
| 20260507005843 | 71 | 96 | 4.3 | 7.0 | 0.00 | 0.00 | 0.00 | 32 | 1013.9 |
| 20260507005339 | 71 | 87 | 6.1 | 7.0 | 0.00 | 0.00 | 0.00 | 31 | 1013.7 |
| 20260507004836 | 71 | 122 | 4.3 | 6.1 | 0.00 | 0.00 | 0.00 | 31 | 1013.7 |
| 20260507004333 | 71 | 102 | 5.2 | 7.0 | 0.00 | 0.00 | 0.00 | 31 | 1013.8 |
| 20260507003830 | 71 | 98 | 4.3 | 5.2 | 0.00 | 0.00 | 0.00 | 31 | 1013.7 |
| 20260507003326 | 72 | 123 | 4.3 | 6.1 | 0.00 | 0.00 | 0.00 | 30 | 1013.8 |
| 20260507002821 | 73 | 153 | 5.2 | 6.1 | 0.00 | 0.00 | 0.00 | 30 | 1013.7 |
| 20260507002317 | 73 | 141 | 6.1 | 7.8 | 0.00 | 0.00 | 0.00 | 29 | 1013.6 |
| 20260507001815 | 72 | 145 | 5.2 | 7.0 | 0.00 | 0.00 | 0.00 | 29 | 1013.5 |
| 20260507001311 | 73 | 118 | 3.5 | 5.2 | 0.00 | 0.00 | 0.00 | 29 | 1013.5 |
| 20260507000807 | 73 | 114 | 3.5 | 4.3 | 0.00 | 0.00 | 0.00 | 29 | 1013.7 |
| 20260507000259 | 73 | 62 | 5.2 | 7.8 | 0.00 | 0.00 | 0.00 | 29 | 1013.5 |
| 20260506235755 | 74 | 111 | 3.5 | 6.1 | 0.00 | 0.00 | 0.00 | 28 | 1013.4 |
| 20260506235250 | 74 | 218 | 1.7 | 1.7 | 0.00 | 0.00 | 0.00 | 28 | 1013.4 |
| 20260506234748 | 73 | 92 | 3.5 | 6.1 | 0.00 | 0.00 | 0.00 | 29 | 1013.6 |
| 20260506234245 | 74 | 181 | 2.6 | 2.6 | 0.00 | 0.00 | 0.00 | 28 | 1013.8 |
| 20260506233742 | 74 | 129 | 4.3 | 7.0 | 0.00 | 0.00 | 0.00 | 28 | 1013.5 |
| 20260506233238 | 74 | 69 | 6.1 | 7.0 | 0.00 | 0.00 | 0.00 | 28 | 1013.6 |
| 20260506232735 | 74 | 84 | 4.3 | 6.1 | 0.00 | 0.00 | 0.00 | 28 | 1013.3 |
| 20260506232230 | 74 | 78 | 2.6 | 4.3 | 0.00 | 0.00 | 0.00 | 28 | 1013.6 |
| 20260506231728 | 74 | 148 | 3.5 | 4.3 | 0.00 | 0.00 | 0.00 | 28 | 1013.5 |
| 20260506231226 | 74 | 181 | 3.5 | 5.2 | 0.00 | 0.00 | 0.00 | 28 | 1013.5 |
| 20260506230722 | 74 | 170 | 2.6 | 2.6 | 0.00 | 0.00 | 0.00 | 28 | 1013.6 |
| 20260506230219 | 74 | 222 | 2.6 | 4.3 | 0.00 | 0.00 | 0.00 | 28 | 1013.5 |
| 20260506225716 | 74 | 151 | 3.5 | 4.3 | 0.00 | 0.00 | 0.00 | 28 | 1013.6 |
| 20260506225213 | 74 | 128 | 4.3 | 6.1 | 0.00 | 0.00 | 0.00 | 28 | 1013.7 |
| 20260506224709 | 74 | 160 | 2.6 | 2.6 | 0.00 | 0.00 | 0.00 | 28 | 1013.7 |
| 20260506224207 | 74 | 271 | 4.3 | 5.2 | 0.00 | 0.00 | 0.00 | 28 | 1013.6 |
| 20260506223702 | 74 | 135 | 4.3 | 5.2 | 0.00 | 0.00 | 0.00 | 28 | 1013.7 |
| 20260506223158 | 74 | 126 | 2.6 | 5.2 | 0.00 | 0.00 | 0.00 | 28 | 1013.5 |
| 20260506222655 | 74 | 56 | 4.3 | 6.1 | 0.00 | 0.00 | 0.00 | 28 | 1013.6 |
| 20260506222151 | 74 | 86 | 2.6 | 4.3 | 0.00 | 0.00 | 0.00 | 28 | 1013.8 |
| 20260506221650 | 74 | 115 | 2.6 | 4.3 | 0.00 | 0.00 | 0.00 | 28 | 1013.8 |
| 20260506221147 | 74 | 226 | 0.9 | 1.7 | 0.00 | 0.00 | 0.00 | 28 | 1013.8 |
| 20260506220644 | 73 | 46 | 0.9 | 1.7 | 0.00 | 0.00 | 0.00 | 29 | 1013.7 |
| 20260506220139 | 74 | 167 | 4.3 | 6.1 | 0.00 | 0.00 | 0.00 | 28 | 1013.9 |
| 20260506215636 | 73 | 132 | 4.3 | 5.2 | 0.00 | 0.00 | 0.00 | 29 | 1013.8 |
| 20260506215131 | 74 | 236 | 0.9 | 0.9 | 0.00 | 0.00 | 0.00 | 28 | 1014.1 |
| 20260506214628 | 74 | 218 | 0.9 | 1.7 | 0.00 | 0.00 | 0.00 | 29 | 1014.1 |
| 20260506214126 | 74 | 241 | 2.6 | 4.3 | 0.00 | 0.00 | 0.00 | 29 | 1014.3 |
| 20260506213624 | 73 | 181 | 0.9 | 1.7 | 0.00 | 0.00 | 0.00 | 29 | 1014.3 |
| 20260506213120 | 73 | 225 | 0.0 | 0.0 | 0.00 | 0.00 | 0.00 | 30 | 1014.1 |
| 20260506212618 | 72 | 228 | 2.6 | 2.6 | 0.00 | 0.00 | 0.00 | 30 | 1014.4 |
| 20260506212113 | 72 | 175 | 3.5 | 5.2 | 0.00 | 0.00 | 0.00 | 31 | 1014.3 |
| 20260506211608 | 73 | 236 | 3.5 | 5.2 | 0.00 | 0.00 | 0.00 | 30 | 1014.6 |
| 20260506211106 | 73 | 148 | 2.6 | 2.6 | 0.00 | 0.00 | 0.00 | 30 | 1014.4 |
| 20260506210603 | 73 | 191 | 2.6 | 4.3 | 0.00 | 0.00 | 0.00 | 31 | 1014.6 |
| 20260506210059 | 73 | 156 | 1.7 | 2.6 | 0.00 | 0.00 | 0.00 | 31 | 1015.0 |
| 20260506205555 | 74 | 71 | 3.5 | 5.2 | 0.00 | 0.00 | 0.00 | 30 | 1015.0 |
| 20260506205050 | 75 | 191 | 4.3 | 5.2 | 0.00 | 0.00 | 0.00 | 28 | 1015.1 |
| 20260506204549 | 74 | 169 | 2.6 | 2.6 | 0.00 | 0.00 | 0.00 | 29 | 1015.2 |
| 20260506204046 | 73 | 233 | 0.9 | 1.7 | 0.00 | 0.00 | 0.00 | 30 | 1015.0 |
| 20260506203544 | 73 | 281 | 0.9 | 0.9 | 0.00 | 0.00 | 0.00 | 31 | 1015.4 |
| 20260506203040 | 72 | 172 | 0.9 | 2.6 | 0.00 | 0.00 | 0.00 | 32 | 1015.1 |
| 20260506202538 | 72 | 238 | 0.9 | 1.7 | 0.00 | 0.00 | 0.00 | 31 | 1015.2 |
| 20260506202034 | 72 | 104 | 0.9 | 0.9 | 0.00 | 0.00 | 0.00 | 33 | 1015.4 |
| 20260506201532 | 73 | 107 | 3.5 | 5.2 | 0.00 | 0.00 | 0.00 | 32 | 1015.5 |
| 20260506201028 | 73 | 195 | 0.9 | 0.9 | 0.00 | 0.00 | 0.00 | 31 | 1015.4 |
| 20260506200524 | 72 | 293 | 2.6 | 2.6 | 0.00 | 0.00 | 0.00 | 31 | 1015.5 |
| 20260506200021 | 72 | 123 | 1.7 | 4.3 | 0.00 | 0.00 | 0.00 | 33 | 1015.5 |
| 20260506195518 | 72 | 155 | 1.7 | 2.6 | 0.00 | 0.00 | 0.00 | 32 | 1015.5 |
| 20260506195014 | 71 | 199 | 0.9 | 0.9 | 0.00 | 0.00 | 0.00 | 34 | 1015.2 |
| 20260506194512 | 70 | 237 | 0.9 | 0.9 | 0.00 | 0.00 | 0.00 | 34 | 1015.5 |
| 20260506194008 | 69 | 317 | 1.7 | 1.7 | 0.00 | 0.00 | 0.00 | 35 | 1015.7 |
| 20260506193506 | 70 | 169 | 2.6 | 2.6 | 0.00 | 0.00 | 0.00 | 34 | 1015.2 |
| 20260506193003 | 69 | 131 | 3.5 | 4.3 | 0.00 | 0.00 | 0.00 | 35 | 1015.5 |
| 20260506192459 | 68 | 199 | 0.9 | 0.9 | 0.00 | 0.00 | 0.00 | 36 | 1015.8 |
| 20260506191955 | 69 | 179 | 2.6 | 2.6 | 0.00 | 0.00 | 0.00 | 36 | 1015.5 |
| 20260506191452 | 69 | 147 | 2.6 | 5.2 | 0.00 | 0.00 | 0.00 | 35 | 1015.8 |
| 20260506190948 | 68 | 245 | 0.0 | 0.0 | 0.00 | 0.00 | 0.00 | 37 | 1015.4 |
| 20260506190446 | 69 | 125 | 3.5 | 5.2 | 0.00 | 0.00 | 0.00 | 37 | 1015.6 |
| 20260506185942 | 68 | 233 | 0.0 | 0.9 | 0.00 | 0.00 | 0.00 | 39 | 1015.7 |
| 20260506185439 | 67 | 179 | 0.0 | 0.9 | 0.00 | 0.00 | 0.00 | 38 | 1015.8 |
| 20260506184936 | 68 | 142 | 1.7 | 2.6 | 0.00 | 0.00 | 0.00 | 38 | 1015.9 |
| 20260506184433 | 67 | 219 | 0.9 | 0.9 | 0.00 | 0.00 | 0.00 | 39 | 1015.8 |
| 20260506183931 | 66 | 237 | 0.9 | 0.9 | 0.00 | 0.00 | 0.00 | 40 | 1016.1 |
| 20260506183426 | 66 | 135 | 2.6 | 4.3 | 0.00 | 0.00 | 0.00 | 40 | 1015.9 |
| 20260506182923 | 66 | 156 | 3.5 | 4.3 | 0.00 | 0.00 | 0.00 | 40 | 1016.2 |
| 20260506182420 | 66 | 232 | 2.6 | 4.3 | 0.00 | 0.00 | 0.00 | 40 | 1016.1 |
| 20260506181918 | 65 | 174 | 2.6 | 4.3 | 0.00 | 0.00 | 0.00 | 41 | 1016.2 |
| 20260506181415 | 65 | 181 | 1.7 | 2.6 | 0.00 | 0.00 | 0.00 | 42 | 1016.3 |
| 20260506180912 | 66 | 129 | 1.7 | 2.6 | 0.00 | 0.00 | 0.00 | 41 | 1016.7 |
| 20260506180408 | 65 | 132 | 0.9 | 1.7 | 0.00 | 0.00 | 0.00 | 42 | 1016.5 |
| 20260506175905 | 65 | 196 | 0.0 | 0.9 | 0.00 | 0.00 | 0.00 | 42 | 1016.7 |
| 20260506175402 | 65 | 240 | 0.9 | 0.9 | 0.00 | 0.00 | 0.00 | 44 | 1016.5 |
| 20260506174859 | 64 | 228 | 0.0 | 0.9 | 0.00 | 0.00 | 0.00 | 45 | 1016.6 |
| 20260506174356 | 62 | 122 | 0.9 | 1.7 | 0.00 | 0.00 | 0.00 | 46 | 1016.7 |
| 20260506173854 | 62 | 189 | 2.6 | 4.3 | 0.00 | 0.00 | 0.00 | 46 | 1016.3 |
| 20260506173350 | 62 | 70 | 2.6 | 4.3 | 0.00 | 0.00 | 0.00 | 46 | 1016.7 |
| 20260506172847 | 61 | 135 | 3.5 | 4.3 | 0.00 | 0.00 | 0.00 | 47 | 1016.5 |
| 20260506172344 | 60 | 139 | 2.6 | 4.3 | 0.00 | 0.00 | 0.00 | 48 | 1016.8 |
| 20260506171841 | 60 | 214 | 0.9 | 0.9 | 0.00 | 0.00 | 0.00 | 49 | 1016.6 |
| 20260506171338 | 60 | 111 | 3.5 | 5.2 | 0.00 | 0.00 | 0.00 | 49 | 1016.8 |
| 20260506170836 | 60 | 176 | 1.7 | 1.7 | 0.00 | 0.00 | 0.00 | 49 | 1016.8 |
| 20260506170332 | 60 | 38 | 2.6 | 4.3 | 0.00 | 0.00 | 0.00 | 49 | 1016.8 |
| 20260506165831 | 60 | 118 | 3.5 | 6.1 | 0.00 | 0.00 | 0.00 | 48 | 1016.6 |
| 20260506165329 | 60 | 192 | 0.9 | 0.9 | 0.00 | 0.00 | 0.00 | 51 | 1016.6 |
| 20260506164825 | 59 | 123 | 2.6 | 4.3 | 0.00 | 0.00 | 0.00 | 50 | 1016.8 |
| 20260506164322 | 59 | 89 | 1.7 | 1.7 | 0.00 | 0.00 | 0.00 | 50 | 1017.0 |
| 20260506163819 | 60 | 108 | 2.6 | 2.6 | 0.00 | 0.00 | 0.00 | 50 | 1016.8 |
| 20260506163314 | 59 | 84 | 1.7 | 2.6 | 0.00 | 0.00 | 0.00 | 51 | 1017.1 |
| 20260506162809 | 60 | 77 | 4.3 | 7.0 | 0.00 | 0.00 | 0.00 | 49 | 1016.9 |
| 20260506162308 | 59 | 224 | 0.9 | 0.9 | 0.00 | 0.00 | 0.00 | 52 | 1016.9 |
| 20260506161804 | 57 | 208 | 0.0 | 0.0 | 0.00 | 0.00 | 0.00 | 54 | 1017.0 |
| 20260506161301 | 57 | 126 | 4.3 | 6.1 | 0.00 | 0.00 | 0.00 | 54 | 1017.1 |
| 20260506160754 | 56 | 298 | 1.7 | 2.6 | 0.00 | 0.00 | 0.00 | 55 | 1016.9 |
| 20260506160250 | 56 | 125 | 3.5 | 5.2 | 0.00 | 0.00 | 0.00 | 55 | 1017.0 |
| 20260506155749 | 55 | 108 | 3.5 | 5.2 | 0.00 | 0.00 | 0.00 | 58 | 1016.8 |
| 20260506155245 | 55 | 169 | 3.5 | 5.2 | 0.00 | 0.00 | 0.00 | 58 | 1016.8 |
| 20260506153358 | 54 | 55 | 0.9 | 1.7 | 0.00 | 0.00 | 0.00 | 61 | 1016.8 |
| 20260506152855 | 54 | 245 | 0.9 | 1.7 | 0.00 | 0.00 | 0.00 | 62 | 1016.8 |
| 20260506152352 | 53 | 233 | 0.9 | 1.7 | 0.00 | 0.00 | 0.00 | 64 | 1016.8 |
| 20260506151851 | 53 | 193 | 0.9 | 0.9 | 0.00 | 0.00 | 0.00 | 64 | 1016.9 |
| 20260506151347 | 52 | 139 | 1.7 | 1.7 | 0.00 | 0.00 | 0.00 | 66 | 1016.9 |
| 20260506150845 | 52 | 299 | 1.7 | 1.7 | 0.00 | 0.00 | 0.00 | 66 | 1017.0 |
| 20260506150341 | 51 | 19 | 0.9 | 1.7 | 0.00 | 0.00 | 0.00 | 69 | 1016.8 |
| 20260506145838 | 50 | 5 | 0.9 | 1.7 | 0.00 | 0.00 | 0.00 | 69 | 1016.8 |
| 20260506145334 | 50 | 223 | 0.0 | 0.0 | 0.00 | 0.00 | 0.00 | 72 | 1016.8 |
| 20260506144832 | 50 | 138 | 0.9 | 0.9 | 0.00 | 0.00 | 0.00 | 71 | 1016.7 |
| 20260506144328 | 50 | 218 | 0.0 | 0.0 | 0.00 | 0.00 | 0.00 | 72 | 1016.8 |
| 20260506143827 | 49 | 163 | 0.9 | 1.7 | 0.00 | 0.00 | 0.00 | 74 | 1016.5 |
| 20260506143323 | 48 | 115 | 4.3 | 6.1 | 0.00 | 0.00 | 0.00 | 74 | 1016.7 |
| 20260506142822 | 48 | 167 | 0.9 | 1.7 | 0.00 | 0.00 | 0.00 | 75 | 1016.5 |
| 20260506142319 | 48 | 180 | 4.3 | 6.1 | 0.00 | 0.00 | 0.00 | 76 | 1016.6 |
| 20260506141817 | 48 | 226 | 0.9 | 1.7 | 0.00 | 0.00 | 0.00 | 76 | 1016.3 |
| 20260506141315 | 48 | 169 | 2.6 | 5.2 | 0.00 | 0.00 | 0.00 | 77 | 1016.2 |
| 20260506140813 | 48 | 39 | 0.9 | 1.7 | 0.00 | 0.00 | 0.00 | 77 | 1016.6 |
| 20260506140309 | 48 | 81 | 1.7 | 1.7 | 0.00 | 0.00 | 0.00 | 77 | 1016.3 |
| 20260506135806 | 48 | 90 | 0.9 | 0.9 | 0.00 | 0.00 | 0.00 | 78 | 1016.5 |
| 20260506135305 | 47 | 198 | 0.9 | 0.9 | 0.00 | 0.00 | 0.00 | 79 | 1016.3 |
| 20260506134759 | 47 | 173 | 0.9 | 1.7 | 0.00 | 0.00 | 0.00 | 79 | 1016.3 |
| 20260506134255 | 47 | 142 | 2.6 | 5.2 | 0.00 | 0.00 | 0.00 | 79 | 1015.9 |
| 20260506133753 | 47 | 205 | 0.9 | 1.7 | 0.00 | 0.00 | 0.00 | 79 | 1015.9 |
| 20260506133250 | 47 | 128 | 0.9 | 1.7 | 0.00 | 0.00 | 0.00 | 79 | 1016.0 |
| 20260506132746 | 47 | 86 | 0.9 | 2.6 | 0.00 | 0.00 | 0.00 | 79 | 1015.8 |
| 20260506132244 | 47 | 214 | 0.9 | 1.7 | 0.00 | 0.00 | 0.00 | 79 | 1016.0 |
| 20260506131742 | 47 | 172 | 0.9 | 2.6 | 0.00 | 0.00 | 0.00 | 79 | 1015.9 |
| 20260506131237 | 47 | 71 | 0.9 | 1.7 | 0.00 | 0.00 | 0.00 | 79 | 1015.8 |
| 20260506130734 | 47 | 77 | 1.7 | 5.2 | 0.00 | 0.00 | 0.00 | 78 | 1015.8 |
| 20260506130231 | 47 | 191 | 0.9 | 1.7 | 0.00 | 0.00 | 0.00 | 78 | 1015.8 |
| 20260506125729 | 47 | 350 | 0.0 | 0.9 | 0.00 | 0.00 | 0.00 | 78 | 1015.8 |
| 20260506125227 | 47 | 210 | 0.9 | 0.9 | 0.00 | 0.00 | 0.00 | 78 | 1015.9 |
| 20260506124725 | 47 | 6 | 0.9 | 0.9 | 0.00 | 0.00 | 0.00 | 79 | 1016.1 |
| 20260506124223 | 47 | 232 | 0.9 | 1.7 | 0.00 | 0.00 | 0.00 | 78 | 1015.8 |
| 20260506123720 | 47 | 197 | 1.7 | 1.7 | 0.00 | 0.00 | 0.00 | 78 | 1015.7 |
| 20260506123219 | 47 | 205 | 0.0 | 0.9 | 0.00 | 0.00 | 0.00 | 80 | 1015.7 |
| 20260506122715 | 47 | 349 | 3.5 | 7.8 | 0.00 | 0.00 | 0.00 | 78 | 1015.6 |
| 20260506122212 | 46 | 246 | 0.0 | 0.0 | 0.00 | 0.00 | 0.00 | 78 | 1015.7 |
| 20260506121710 | 46 | 171 | 0.9 | 0.9 | 0.00 | 0.00 | 0.00 | 79 | 1015.6 |
| 20260506121206 | 46 | 29 | 3.5 | 5.2 | 0.00 | 0.00 | 0.00 | 77 | 1015.6 |
| 20260506120704 | 46 | 276 | 2.6 | 2.6 | 0.00 | 0.00 | 0.00 | 77 | 1015.5 |
| 20260506120202 | 46 | 81 | 2.6 | 4.3 | 0.00 | 0.00 | 0.00 | 77 | 1015.6 |
| 20260506115700 | 46 | 264 | 0.0 | 0.9 | 0.00 | 0.00 | 0.00 | 77 | 1015.2 |
| 20260506115158 | 46 | 250 | 0.9 | 1.7 | 0.00 | 0.00 | 0.00 | 77 | 1014.9 |
| 20260506114654 | 46 | 196 | 0.9 | 1.7 | 0.00 | 0.00 | 0.00 | 77 | 1015.1 |
| 20260506114152 | 46 | 113 | 2.6 | 7.0 | 0.00 | 0.00 | 0.00 | 77 | 1014.9 |
| 20260506113651 | 46 | 330 | 2.6 | 4.3 | 0.00 | 0.00 | 0.00 | 77 | 1015.1 |
| 20260506113148 | 46 | 61 | 0.9 | 1.7 | 0.00 | 0.00 | 0.00 | 77 | 1015.4 |
| 20260506112643 | 46 | 71 | 2.6 | 5.2 | 0.00 | 0.00 | 0.00 | 76 | 1015.1 |
| 20260506112142 | 46 | 280 | 1.7 | 2.6 | 0.00 | 0.00 | 0.00 | 76 | 1015.2 |
| 20260506111639 | 46 | 64 | 0.9 | 0.9 | 0.00 | 0.00 | 0.00 | 76 | 1015.2 |
| 20260506111136 | 46 | 204 | 1.7 | 1.7 | 0.00 | 0.00 | 0.00 | 76 | 1014.9 |
| 20260506110634 | 47 | 144 | 0.9 | 1.7 | 0.00 | 0.00 | 0.00 | 76 | 1015.4 |
| 20260506110131 | 47 | 236 | 1.7 | 4.3 | 0.00 | 0.00 | 0.00 | 76 | 1015.0 |
| 20260506105627 | 47 | 155 | 0.9 | 1.7 | 0.00 | 0.00 | 0.00 | 76 | 1014.9 |
| 20260506105124 | 47 | 196 | 0.9 | 1.7 | 0.00 | 0.00 | 0.00 | 76 | 1014.9 |
| 20260506104623 | 47 | 295 | 0.9 | 1.7 | 0.00 | 0.00 | 0.00 | 76 | 1014.7 |
| 20260506104120 | 47 | 110 | 2.6 | 2.6 | 0.00 | 0.00 | 0.00 | 76 | 1014.6 |